Lamoni, IA

11:34 AM CDT on August 23, 2017 (GMT -0500)
Lamoni Municipal

Weather History for KLWD - June, 2013

Change the Weather History Date:

Friday, June 14, 2013

  Actual Average Record
Temperature  
Mean Temperature 69 °F 71 °F  
Max Temperature 75 °F 81 °F 96 °F (1987)
Min Temperature 62 °F 61 °F 0 °F (2008)
Degree Days  
Heating Degree Days 0 0  
Month to date heating degree days 32 16  
Since 1 June heating degree days 32 16  
Since 1 July heating degree days 6092 6076  
Cooling Degree Days 4 6  
Month to date cooling degree days 36 67  
Year to date cooling degree days 112 121  
Since 1 June cooling degree days 36 67  
Growing Degree Days 18 (Base 50)    
Moisture  
Dew Point 62 °F    
Average Humidity 79    
Maximum Humidity 93    
Minimum Humidity 64    
Precipitation  
Precipitation 1.45 in 0.16 in 1.45 in (2013)
Month to date precipitation 2.82 2.70  
Sea Level Pressure  
Sea Level Pressure 30.01 in    
Wind  
Wind Speed 9 mph (SE)    
Max Wind Speed 36 mph    
Max Gust Speed 45 mph    
Visibility 8 miles    
Events Rain , Thunderstorm    
T = Trace of Precipitation, MM = Missing Value Source: NWS Daily Summary

Daily Weather History Graph

Daily Weather History Graph

Search for Another Location

Airport or City:

Trip Planner

Search our weather history database for the weather conditions in past years. The results will help you decide how hot, cold, wet, or windy it might be!

Date:

Astronomy

Jun. 14, 2013 Rise Set
Actual Time 5:44 AM CDT 8:47 PM CDT
Civil Twilight 5:10 AM CDT 9:21 PM CDT
Nautical Twilight 4:28 AM CDT 10:03 PM CDT
Astronomical Twilight 3:38 AM CDT 10:53 PM CDT
Moon 11:21 AM CDT (6/14) No Moon Set
Length of Visible Light 16h 10m
Length of Day
15h 03m
Waxing Crescent, 30% of the Moon is Illuminated
Jun 14
Waxing Crescent
Jun 16
First Quarter
Jun 23
Full
Jun 29
Last Quarter
Jul 8
New

Hourly Weather History & Observations

Time (CDT) Temp. Dew Point Humidity Pressure Visibility Wind Dir Wind Speed Gust Speed Precip Events Conditions
12:53 AM 66.0 °F 60.1 °F 81% 30.02 in 10.0 mi Calm Calm - N/A   Clear
1:53 AM 64.9 °F 60.1 °F 84% 30.03 in 10.0 mi WNW 3.5 mph - N/A   Clear
2:53 AM 64.0 °F 59.0 °F 84% 30.03 in 10.0 mi NNW 3.5 mph - N/A   Clear
3:53 AM 64.0 °F 59.0 °F 84% 30.02 in 10.0 mi Calm Calm - N/A   Clear
4:53 AM 64.0 °F 59.0 °F 84% 30.00 in 10.0 mi ENE 4.6 mph - N/A   Partly Cloudy
5:53 AM 63.0 °F 59.0 °F 87% 30.01 in 10.0 mi East 4.6 mph - N/A   Partly Cloudy
6:53 AM 64.9 °F 60.1 °F 84% 30.05 in 10.0 mi NE 3.5 mph - N/A   Overcast
7:53 AM 69.1 °F 61.0 °F 75% 30.03 in 10.0 mi ESE 6.9 mph - N/A   Partly Cloudy
8:50 AM 71.6 °F 62.6 °F 73% 30.00 in 10.0 mi SE 8.1 mph - N/A Thunderstorm Clear
8:53 AM 72.0 °F 62.1 °F 71% 29.99 in 10.0 mi SE 8.1 mph - N/A Thunderstorm Clear
9:09 AM 71.6 °F 62.6 °F 73% 30.01 in 10.0 mi SE 11.5 mph 17.3 mph N/A   Clear
9:53 AM 71.1 °F 61.0 °F 70% 30.04 in 10.0 mi Calm Calm - N/A Thunderstorm Overcast
10:16 AM 66.2 °F 62.6 °F 88% 30.10 in 1.8 mi SSE 8.1 mph 18.4 mph 0.07 in Rain , Thunderstorm Heavy Thunderstorms and Rain
10:26 AM 64.4 °F 62.6 °F 94% 30.09 in 3.0 mi Variable 3.5 mph - 0.18 in Rain , Thunderstorm Thunderstorms and Rain
10:53 AM 66.0 °F 62.1 °F 87% 30.04 in 7.0 mi South 9.2 mph - 0.23 in Rain , Thunderstorm Light Thunderstorms and Rain
11:19 AM 64.4 °F 60.8 °F 88% 30.06 in 1.8 mi SE 6.9 mph - 0.12 in Rain , Thunderstorm Heavy Thunderstorms and Rain
11:28 AM 64.4 °F 62.6 °F 94% 30.05 in 3.0 mi South 6.9 mph - 0.19 in Rain , Thunderstorm Light Thunderstorms and Rain
11:53 AM 64.9 °F 62.1 °F 90% 30.03 in 4.0 mi South 10.4 mph - 0.25 in Rain , Thunderstorm Light Thunderstorms and Rain
12:14 PM 64.4 °F 62.6 °F 94% 30.03 in - South 11.5 mph 17.3 mph 0.02 in Thunderstorm Thunderstorm
12:30 PM 64.4 °F 62.6 °F 94% 30.01 in 10.0 mi SSE 12.7 mph 23.0 mph 0.02 in   Unknown
12:48 PM 66.2 °F 62.6 °F 88% 29.99 in 10.0 mi SSE 13.8 mph 21.9 mph 0.02 in Thunderstorm Mostly Cloudy
12:53 PM 66.0 °F 62.1 °F 87% 29.98 in 10.0 mi SSE 12.7 mph 20.7 mph 0.02 in Thunderstorm Mostly Cloudy
1:03 PM 66.2 °F 62.6 °F 88% 29.99 in 10.0 mi SSE 12.7 mph 24.2 mph N/A   Mostly Cloudy
1:18 PM 66.2 °F 62.6 °F 88% 30.01 in 10.0 mi East 5.8 mph 16.1 mph N/A Thunderstorm Overcast
1:36 PM 66.2 °F 62.6 °F 88% 30.06 in 1.8 mi Variable 5.8 mph - N/A Thunderstorm Unknown
1:53 PM 64.9 °F 62.1 °F 90% 30.00 in 4.0 mi SSE 19.6 mph 24.2 mph 0.15 in Rain , Thunderstorm Light Thunderstorms and Rain
2:53 PM 64.9 °F 61.0 °F 87% 29.95 in 5.0 mi SSE 12.7 mph 20.7 mph 0.07 in Rain , Thunderstorm Light Thunderstorms and Rain
3:02 PM 66.2 °F 62.6 °F 88% 29.97 in 10.0 mi SSE 10.4 mph 23.0 mph 0.00 in Rain , Thunderstorm Light Thunderstorms and Rain
3:08 PM 68.0 °F 62.6 °F 83% 29.97 in 10.0 mi SE 10.4 mph 23.0 mph 0.00 in   Scattered Clouds
3:53 PM 70.0 °F 62.1 °F 76% 29.98 in 10.0 mi ESE 6.9 mph - 0.00 in   Overcast
4:53 PM 72.0 °F 62.1 °F 71% 29.97 in 10.0 mi ESE 5.8 mph - N/A   Scattered Clouds
5:53 PM 75.0 °F 63.0 °F 66% 29.94 in 10.0 mi SSE 11.5 mph - N/A   Clear
6:53 PM 73.9 °F 64.0 °F 71% 29.96 in 10.0 mi East 3.5 mph - N/A   Clear
7:53 PM 69.1 °F 64.0 °F 84% 29.94 in 10.0 mi East 8.1 mph 16.1 mph N/A   Clear
8:53 PM 66.9 °F 61.0 °F 81% 29.94 in 10.0 mi East 9.2 mph - N/A   Clear
9:53 PM 66.9 °F 62.1 °F 84% 29.93 in 10.0 mi SSE 10.4 mph 18.4 mph N/A   Clear
10:53 PM 68.0 °F 62.1 °F 81% 29.87 in 10.0 mi South 17.3 mph 21.9 mph N/A   Clear
11:23 PM 69.8 °F 62.6 °F 78% 29.93 in 10.0 mi South 13.8 mph 20.7 mph N/A Thunderstorm Partly Cloudy
11:45 PM 66.2 °F 60.8 °F 83% 30.06 in 6.0 mi NNW 27.6 mph 41.4 mph 0.00 in Rain , Thunderstorm Light Thunderstorms and Rain
11:50 PM 62.6 °F 60.8 °F 94% 30.04 in 1.8 mi NNW 31.1 mph 40.3 mph 0.07 in Rain , Thunderstorm Heavy Thunderstorms and Rain
11:53 PM 63.0 °F 60.1 °F 90% 30.05 in 1.5 mi NNW 34.5 mph 44.9 mph 0.16 in Rain , Thunderstorm Heavy Thunderstorms and Rain
11:58 PM 62.6 °F 60.8 °F 94% 30.07 in 1.8 mi NW 15.0 mph 44.9 mph 0.06 in Rain , Thunderstorm Heavy Thunderstorms and Rain